AAL1033 KJFK-MDPP

Flight info

Callsign AAL1033
Flight time 3h 5m
Altitude 41000
Route SHIPP Y488 OHRYN/N0489F400 Y488 WEBBB/M085F400 Y488 HOBOH/M085F410 Y488 CHUBY/M085F400 Y488 SAUCR/M085F410 L453 LAMER/N0484F410 L453 RODRK/N0488F400 DCT SEKAR SEKAR3S
Aircraft MD11/H-SDE1E2E3FGHIJ2J3J4J5M1RWXY/LB1D1

Departure

Time 2026-05-04 19:43
Airport John F. Kennedy International Airport (KJFK)

Arrival

Time 2026-05-04 22:48
Airport Gregorio Luperon International Airport (MDPP)
Time Latitude Longitude Altitude Speed Heading
2026-05-04 18:38 40.64904 -73.78921 23 ft 0 kts 242°
2026-05-04 19:24 40.64912 -73.78901 24 ft 4 kts 242°
2026-05-04 19:25 40.64923 -73.78877 24 ft 4 kts 252°
2026-05-04 19:25 40.64926 -73.78856 24 ft 4 kts 306°
2026-05-04 19:25 40.64911 -73.78839 26 ft 4 kts 332°
2026-05-04 19:25 40.64891 -73.78825 26 ft 1 kts 332°
2026-05-04 19:30 40.64893 -73.78826 26 ft 1 kts 334°
2026-05-04 19:30 40.64913 -73.78836 27 ft 5 kts 341°
2026-05-04 19:30 40.64954 -73.78852 25 ft 7 kts 342°
2026-05-04 19:31 40.65009 -73.78887 26 ft 10 kts 332°
2026-05-04 19:31 40.65079 -73.78902 28 ft 10 kts 359°
2026-05-04 19:31 40.65153 -73.78903 25 ft 11 kts
2026-05-04 19:31 40.65194 -73.78894 25 ft 4 kts 26°
2026-05-04 19:32 40.65210 -73.78865 25 ft 5 kts 65°
2026-05-04 19:32 40.65224 -73.78815 27 ft 7 kts 70°
2026-05-04 19:32 40.65243 -73.78754 28 ft 8 kts 65°
2026-05-04 19:32 40.65267 -73.78689 29 ft 6 kts 63°
2026-05-04 19:33 40.65285 -73.78645 27 ft 7 kts 61°
2026-05-04 19:33 40.65320 -73.78556 26 ft 13 kts 64°
2026-05-04 19:33 40.65357 -73.78458 26 ft 11 kts 63°
2026-05-04 19:33 40.65394 -73.78378 29 ft 9 kts 57°
2026-05-04 19:34 40.65420 -73.78322 26 ft 6 kts 58°
2026-05-04 19:34 40.65448 -73.78262 29 ft 9 kts 59°
2026-05-04 19:34 40.65484 -73.78177 26 ft 12 kts 64°
2026-05-04 19:34 40.65475 -73.78081 27 ft 10 kts 113°
2026-05-04 19:35 40.65442 -73.78002 29 ft 9 kts 121°
2026-05-04 19:35 40.65410 -73.77933 29 ft 9 kts 121°
2026-05-04 19:35 40.65380 -73.77865 29 ft 9 kts 121°
2026-05-04 19:35 40.65349 -73.77798 27 ft 8 kts 121°
2026-05-04 19:36 40.65320 -73.77736 26 ft 7 kts 121°
2026-05-04 19:36 40.65295 -73.77682 24 ft 7 kts 121°
2026-05-04 19:36 40.65272 -73.77632 25 ft 6 kts 121°
2026-05-04 19:36 40.65250 -73.77582 25 ft 7 kts 120°
2026-05-04 19:37 40.65227 -73.77529 27 ft 7 kts 120°
2026-05-04 19:37 40.65203 -73.77477 25 ft 7 kts 121°
2026-05-04 19:37 40.65176 -73.77417 26 ft 8 kts 121°
2026-05-04 19:37 40.65146 -73.77351 28 ft 9 kts 121°
2026-05-04 19:38 40.65113 -73.77280 29 ft 10 kts 121°
2026-05-04 19:38 40.65077 -73.77202 25 ft 10 kts 121°
2026-05-04 19:38 40.65041 -73.77122 25 ft 10 kts 121°
2026-05-04 19:38 40.65003 -73.77039 28 ft 11 kts 121°
2026-05-04 19:39 40.64962 -73.76951 28 ft 12 kts 121°
2026-05-04 19:39 40.64923 -73.76857 28 ft 12 kts 120°
2026-05-04 19:39 40.64882 -73.76766 26 ft 11 kts 115°
2026-05-04 19:39 40.64901 -73.76681 26 ft 10 kts 38°
2026-05-04 19:40 40.64961 -73.76631 26 ft 10 kts 29°
2026-05-04 19:40 40.65021 -73.76584 25 ft 11 kts 31°
2026-05-04 19:40 40.65087 -73.76525 26 ft 10 kts 48°
2026-05-04 19:40 40.65093 -73.76468 23 ft 3 kts 104°
2026-05-04 19:41 40.65090 -73.76460 27 ft 0 kts 112°
2026-05-04 19:41 40.65088 -73.76454 26 ft 2 kts 114°
2026-05-04 19:41 40.65070 -73.76411 24 ft 8 kts 121°
2026-05-04 19:42 40.65016 -73.76376 25 ft 9 kts 181°
2026-05-04 19:42 40.64963 -73.76403 24 ft 7 kts 208°
2026-05-04 19:42 40.64670 -73.76628 28 ft 105 kts 210°
2026-05-04 19:42 40.63776 -73.77324 338 ft 168 kts 210°
2026-05-04 19:43 40.62835 -73.78105 1217 ft 159 kts 214°
2026-05-04 19:43 40.61904 -73.78849 1939 ft 156 kts 213°
2026-05-04 19:43 40.60983 -73.79577 2817 ft 153 kts 216°
2026-05-04 19:43 40.60074 -73.80352 3344 ft 163 kts 216°
2026-05-04 19:44 40.59076 -73.81234 3617 ft 184 kts 218°
2026-05-04 19:44 40.57830 -73.82244 3931 ft 232 kts 212°
2026-05-04 19:44 40.56380 -73.83294 4305 ft 243 kts 211°
2026-05-04 19:44 40.54880 -73.84375 4684 ft 250 kts 211°
2026-05-04 19:45 40.53307 -73.85393 4943 ft 256 kts 200°
2026-05-04 19:45 40.51523 -73.85385 6131 ft 266 kts 171°
2026-05-04 19:45 40.49815 -73.84266 7188 ft 285 kts 143°
2026-05-04 19:45 40.48570 -73.82198 8293 ft 297 kts 117°
2026-05-04 19:46 40.47899 -73.79596 9381 ft 304 kts 105°
2026-05-04 19:46 40.47402 -73.76876 10444 ft 309 kts 104°
2026-05-04 19:46 40.46862 -73.74112 11462 ft 315 kts 106°
2026-05-04 19:46 40.46244 -73.71326 12493 ft 321 kts 108°
2026-05-04 19:47 40.45555 -73.68517 13525 ft 327 kts 109°
2026-05-04 19:47 40.44807 -73.65663 14474 ft 332 kts 110°
2026-05-04 19:47 40.44034 -73.62827 15388 ft 337 kts 111°
2026-05-04 19:47 40.43222 -73.59923 16348 ft 342 kts 111°
2026-05-04 19:48 40.42385 -73.56969 17327 ft 347 kts 111°
2026-05-04 19:48 40.41532 -73.53986 18258 ft 352 kts 111°
2026-05-04 19:48 40.40639 -73.50879 18527 ft 378 kts 111°
2026-05-04 19:48 40.39676 -73.47541 18661 ft 404 kts 111°
2026-05-04 19:49 40.38649 -73.43991 18789 ft 428 kts 111°
2026-05-04 19:49 40.37580 -73.40299 19320 ft 436 kts 111°
2026-05-04 19:49 40.36499 -73.36568 19962 ft 441 kts 111°
2026-05-04 19:49 40.35402 -73.32792 20602 ft 445 kts 111°
2026-05-04 19:50 40.34292 -73.28975 21256 ft 450 kts 110°
2026-05-04 19:50 40.33069 -73.25178 21878 ft 455 kts 117°
2026-05-04 19:50 40.31527 -73.21539 22529 ft 460 kts 122°
2026-05-04 19:50 40.29800 -73.17983 23205 ft 465 kts 124°
2026-05-04 19:51 40.27991 -73.14439 23822 ft 470 kts 124°
2026-05-04 19:51 40.26157 -73.10877 24448 ft 474 kts 124°
2026-05-04 19:51 40.24313 -73.07275 25078 ft 478 kts 124°
2026-05-04 19:51 40.22466 -73.03638 25713 ft 482 kts 123°
2026-05-04 19:52 40.20611 -72.99959 26351 ft 486 kts 123°
2026-05-04 19:52 40.18746 -72.96242 26983 ft 491 kts 123°
2026-05-04 19:52 40.16865 -72.92489 27592 ft 495 kts 123°
2026-05-04 19:52 40.14969 -72.88705 28207 ft 499 kts 123°
2026-05-04 19:53 40.13059 -72.84896 28813 ft 504 kts 123°
2026-05-04 19:53 40.11131 -72.81047 29399 ft 508 kts 122°
2026-05-04 19:53 40.09245 -72.77123 29959 ft 512 kts 121°
2026-05-04 19:53 40.07405 -72.73129 30443 ft 516 kts 120°
2026-05-04 19:54 40.05580 -72.69081 30903 ft 518 kts 120°
2026-05-04 19:54 40.03788 -72.65078 31478 ft 517 kts 120°
2026-05-04 19:54 40.01974 -72.61035 32077 ft 515 kts 120°
2026-05-04 19:54 40.00161 -72.57010 32652 ft 514 kts 120°
2026-05-04 19:55 39.98347 -72.53002 33239 ft 512 kts 121°
2026-05-04 19:55 39.96547 -72.49005 33788 ft 511 kts 121°
2026-05-04 19:55 39.94771 -72.44996 34264 ft 510 kts 121°
2026-05-04 19:55 39.93010 -72.40985 34624 ft 511 kts 121°
2026-05-04 19:56 39.91247 -72.36953 34978 ft 512 kts 121°
2026-05-04 19:56 39.89486 -72.32923 35322 ft 513 kts 121°
2026-05-04 19:56 39.87717 -72.28882 35655 ft 514 kts 122°
2026-05-04 19:56 39.85947 -72.24845 35985 ft 515 kts 122°
2026-05-04 19:57 39.84167 -72.20797 36317 ft 515 kts 122°
2026-05-04 19:57 39.82384 -72.16748 36634 ft 516 kts 122°
2026-05-04 19:57 39.80597 -72.12696 36936 ft 517 kts 123°
2026-05-04 19:57 39.78804 -72.08638 37262 ft 518 kts 123°
2026-05-04 19:58 39.77011 -72.04585 37564 ft 518 kts 123°
2026-05-04 19:58 39.75145 -72.00582 37831 ft 516 kts 129°
2026-05-04 19:58 39.72914 -71.96964 38127 ft 511 kts 137°
2026-05-04 19:58 39.70403 -71.93717 38407 ft 508 kts 142°
2026-05-04 19:59 39.67773 -71.90651 38693 ft 507 kts 144°
2026-05-04 19:59 39.65119 -71.87638 38917 ft 507 kts 144°
2026-05-04 19:59 39.62474 -71.84605 39151 ft 508 kts 143°
2026-05-04 19:59 39.59849 -71.81536 39384 ft 508 kts 143°
2026-05-04 20:00 39.57246 -71.78441 39625 ft 508 kts 142°
2026-05-04 20:00 39.54657 -71.75332 39846 ft 507 kts 142°
2026-05-04 20:00 39.52028 -71.72297 39991 ft 505 kts 147°
2026-05-04 20:01 39.46048 -71.67833 40035 ft 491 kts 165°
2026-05-04 20:01 39.39563 -71.65229 40041 ft 487 kts 170°
2026-05-04 20:02 39.34151 -71.63158 40043 ft 489 kts 169°
2026-05-04 20:02 39.27684 -71.60400 40050 ft 490 kts 167°
2026-05-04 20:03 39.21235 -71.57554 40053 ft 487 kts 170°
2026-05-04 20:03 39.16881 -71.56475 40061 ft 477 kts 181°
2026-05-04 20:03 39.13585 -71.56192 40059 ft 474 kts 184°
2026-05-04 20:04 39.08074 -71.56028 40059 ft 472 kts 185°
2026-05-04 20:04 39.01497 -71.55800 40059 ft 473 kts 184°
2026-05-04 20:05 38.94917 -71.55446 40061 ft 473 kts 184°
2026-05-04 20:05 38.88336 -71.55043 40065 ft 473 kts 184°
2026-05-04 20:06 38.81756 -71.54637 40061 ft 473 kts 184°
2026-05-04 20:06 38.75231 -71.54239 40062 ft 473 kts 184°
2026-05-04 20:07 38.68660 -71.53841 40072 ft 473 kts 184°
2026-05-04 20:07 38.62086 -71.53443 40070 ft 472 kts 184°
2026-05-04 20:08 38.55548 -71.53345 40068 ft 464 kts 192°
2026-05-04 20:08 38.49430 -71.55377 40074 ft 450 kts 208°
2026-05-04 20:09 38.43746 -71.58679 40080 ft 448 kts 210°
2026-05-04 20:09 38.38038 -71.61923 40076 ft 450 kts 208°
2026-05-04 20:10 38.32255 -71.64992 40078 ft 450 kts 208°
2026-05-04 20:10 38.26451 -71.67990 40081 ft 450 kts 207°
2026-05-04 20:11 38.20641 -71.70979 40082 ft 450 kts 207°
2026-05-04 20:11 38.14837 -71.73964 40080 ft 450 kts 207°
2026-05-04 20:12 38.09043 -71.76939 40080 ft 449 kts 207°
2026-05-04 20:12 38.03245 -71.79895 40084 ft 449 kts 207°
2026-05-04 20:13 37.97498 -71.82820 40087 ft 448 kts 207°
2026-05-04 20:13 37.91717 -71.85762 40084 ft 447 kts 207°
2026-05-04 20:14 37.85939 -71.88699 40085 ft 447 kts 207°
2026-05-04 20:14 37.80170 -71.91627 40085 ft 447 kts 207°
2026-05-04 20:15 37.74403 -71.94548 40087 ft 446 kts 207°
2026-05-04 20:15 37.68650 -71.97460 40090 ft 445 kts 208°
2026-05-04 20:16 37.62997 -72.00586 40088 ft 442 kts 211°
2026-05-04 20:16 37.57425 -72.03860 40086 ft 441 kts 211°
2026-05-04 20:17 37.51867 -72.07131 40096 ft 440 kts 211°
2026-05-04 20:17 37.46309 -72.10380 40097 ft 440 kts 211°
2026-05-04 20:18 37.40749 -72.13618 40083 ft 440 kts 211°
2026-05-04 20:18 37.35194 -72.16846 40096 ft 440 kts 211°
2026-05-04 20:19 37.29680 -72.20044 40094 ft 439 kts 211°
2026-05-04 20:19 37.24129 -72.23259 40092 ft 439 kts 211°
2026-05-04 20:20 37.18579 -72.26468 40089 ft 439 kts 211°
2026-05-04 20:20 37.13037 -72.29676 40094 ft 439 kts 211°
2026-05-04 20:21 37.07495 -72.32883 40097 ft 438 kts 211°
2026-05-04 20:21 36.99194 -72.37679 40100 ft 438 kts 211°
2026-05-04 20:22 36.93660 -72.40870 40099 ft 438 kts 211°
2026-05-04 20:22 36.88119 -72.44059 40101 ft 438 kts 211°
2026-05-04 20:23 36.82583 -72.47240 40104 ft 438 kts 212°
2026-05-04 20:23 36.77038 -72.50399 40106 ft 439 kts 210°
2026-05-04 20:24 36.71138 -72.52686 40104 ft 453 kts 197°
2026-05-04 20:24 36.67966 -72.53007 40101 ft 464 kts 187°
2026-05-04 20:24 36.64717 -72.52673 40112 ft 474 kts 179°
2026-05-04 20:25 36.58227 -72.50677 40114 ft 484 kts 172°
2026-05-04 20:25 36.51771 -72.48306 40118 ft 484 kts 172°
2026-05-04 20:26 36.45299 -72.46063 40118 ft 482 kts 173°
2026-05-04 20:26 36.38817 -72.43919 40122 ft 481 kts 173°
2026-05-04 20:27 36.32386 -72.41818 40131 ft 481 kts 174°
2026-05-04 20:27 36.25915 -72.39703 40128 ft 481 kts 174°
2026-05-04 20:28 36.19457 -72.37593 40129 ft 479 kts 174°
2026-05-04 20:28 36.13011 -72.35489 40131 ft 478 kts 174°
2026-05-04 20:29 36.06589 -72.33400 40133 ft 476 kts 175°
2026-05-04 20:29 36.03370 -72.32648 40137 ft 465 kts 182°
2026-05-04 20:29 36.00175 -72.32417 40138 ft 457 kts 188°
2026-05-04 20:30 35.93856 -72.32592 40143 ft 453 kts 191°
2026-05-04 20:30 35.87558 -72.32839 40143 ft 453 kts 190°
2026-05-04 20:31 35.81261 -72.32983 40144 ft 452 kts 189°
2026-05-04 20:31 35.74972 -72.33079 40140 ft 451 kts 189°
2026-05-04 20:32 35.68696 -72.33166 40147 ft 450 kts 189°
2026-05-04 20:32 35.62435 -72.33255 40154 ft 449 kts 189°
2026-05-04 20:33 35.56189 -72.33345 40153 ft 449 kts 190°
2026-05-04 20:33 35.49952 -72.33436 40151 ft 448 kts 190°
2026-05-04 20:34 35.43725 -72.33526 40150 ft 447 kts 190°
2026-05-04 20:34 35.37508 -72.33617 40154 ft 447 kts 190°
2026-05-04 20:35 35.31292 -72.33706 40155 ft 446 kts 190°
2026-05-04 20:35 35.25081 -72.33796 40156 ft 446 kts 190°
2026-05-04 20:36 35.18874 -72.33884 40151 ft 446 kts 190°
2026-05-04 20:36 35.12675 -72.33972 40155 ft 445 kts 190°
2026-05-04 20:37 35.06487 -72.34061 40156 ft 444 kts 190°
2026-05-04 20:37 35.00350 -72.34148 40157 ft 444 kts 189°
2026-05-04 20:38 34.94237 -72.34528 40157 ft 436 kts 195°
2026-05-04 20:38 34.88244 -72.35496 40162 ft 433 kts 197°
2026-05-04 20:39 34.82235 -72.36551 40162 ft 434 kts 197°
2026-05-04 20:39 34.76299 -72.37556 40158 ft 434 kts 196°
2026-05-04 20:40 34.70231 -72.38085 40159 ft 445 kts 187°
2026-05-04 20:40 34.64012 -72.37467 40161 ft 450 kts 183°
2026-05-04 20:41 34.57778 -72.36658 40163 ft 450 kts 184°
2026-05-04 20:41 34.51552 -72.35919 40162 ft 449 kts 184°
2026-05-04 20:42 34.45335 -72.35229 40163 ft 449 kts 184°
2026-05-04 20:42 34.39123 -72.34552 40162 ft 448 kts 184°
2026-05-04 20:43 34.32912 -72.33877 40162 ft 448 kts 184°
2026-05-04 20:43 34.26708 -72.33201 40163 ft 447 kts 184°
2026-05-04 20:44 34.20505 -72.32527 40164 ft 447 kts 184°
2026-05-04 20:44 34.14307 -72.31853 40163 ft 447 kts 184°
2026-05-04 20:45 34.08110 -72.31181 40161 ft 447 kts 184°
2026-05-04 20:45 34.01919 -72.30510 40161 ft 447 kts 184°
2026-05-04 20:46 33.95760 -72.29635 40166 ft 453 kts 179°
2026-05-04 20:46 33.89523 -72.27996 40165 ft 457 kts 176°
2026-05-04 20:47 33.83379 -72.26218 40167 ft 457 kts 176°
2026-05-04 20:47 33.77196 -72.24470 40163 ft 456 kts 176°
2026-05-04 20:48 33.71016 -72.22760 40161 ft 456 kts 176°
2026-05-04 20:48 33.64840 -72.21062 40164 ft 455 kts 176°
2026-05-04 20:49 33.58666 -72.19368 40166 ft 455 kts 176°
2026-05-04 20:49 33.52498 -72.17677 40168 ft 454 kts 176°
2026-05-04 20:50 33.46333 -72.15988 40166 ft 454 kts 177°
2026-05-04 20:50 33.40172 -72.14304 40161 ft 454 kts 177°
2026-05-04 20:51 33.34015 -72.12623 40167 ft 454 kts 177°
2026-05-04 20:51 33.28899 -72.11227 40161 ft 454 kts 177°
2026-05-04 20:52 33.22746 -72.09552 40170 ft 453 kts 177°
2026-05-04 20:52 33.16597 -72.07880 40164 ft 453 kts 177°
2026-05-04 20:53 33.10451 -72.06217 40164 ft 453 kts 177°
2026-05-04 20:53 33.04309 -72.04557 40162 ft 452 kts 177°
2026-05-04 20:54 32.98169 -72.02901 40163 ft 452 kts 177°
2026-05-04 20:54 32.92033 -72.01251 40162 ft 452 kts 177°
2026-05-04 20:55 32.85903 -71.99604 40161 ft 452 kts 177°
2026-05-04 20:55 32.79774 -71.97959 40161 ft 451 kts 177°
2026-05-04 20:56 32.73650 -71.96318 40162 ft 451 kts 177°
2026-05-04 20:56 32.67527 -71.94679 40158 ft 451 kts 177°
2026-05-04 20:57 32.61410 -71.93045 40157 ft 450 kts 177°
2026-05-04 20:57 32.55301 -71.91414 40161 ft 450 kts 178°
2026-05-04 20:58 32.49187 -71.89785 40154 ft 450 kts 178°
2026-05-04 20:58 32.43078 -71.88160 40152 ft 450 kts 178°
2026-05-04 20:59 32.36972 -71.86537 40150 ft 450 kts 178°
2026-05-04 20:59 32.30872 -71.84918 40149 ft 449 kts 178°
2026-05-04 21:00 32.24771 -71.83302 40152 ft 449 kts 178°
2026-05-04 21:00 32.18672 -71.81692 40150 ft 449 kts 178°
2026-05-04 21:01 32.12572 -71.80086 40141 ft 449 kts 178°
2026-05-04 21:01 32.06513 -71.78489 40144 ft 449 kts 178°
2026-05-04 21:02 32.00375 -71.76873 40141 ft 449 kts 178°
2026-05-04 21:02 31.94274 -71.75268 40134 ft 449 kts 178°
2026-05-04 21:03 31.88216 -71.73676 40139 ft 449 kts 178°
2026-05-04 21:03 31.82120 -71.72076 40144 ft 449 kts 178°
2026-05-04 21:04 31.76015 -71.70476 40141 ft 449 kts 178°
2026-05-04 21:04 31.69917 -71.68879 40135 ft 449 kts 178°
2026-05-04 21:05 31.63818 -71.67285 40138 ft 449 kts 178°
2026-05-04 21:05 31.57716 -71.65693 40134 ft 449 kts 178°
2026-05-04 21:06 31.51611 -71.64101 40130 ft 449 kts 178°
2026-05-04 21:06 31.45505 -71.62511 40130 ft 449 kts 178°
2026-05-04 21:07 31.39397 -71.60923 40136 ft 450 kts 178°
2026-05-04 21:07 31.33291 -71.59338 40128 ft 449 kts 178°
2026-05-04 21:08 31.27187 -71.57755 40127 ft 449 kts 178°
2026-05-04 21:08 31.21084 -71.56177 40127 ft 449 kts 178°
2026-05-04 21:09 31.14982 -71.54605 40125 ft 449 kts 178°
2026-05-04 21:09 31.08876 -71.53030 40125 ft 449 kts 178°
2026-05-04 21:10 31.02774 -71.51457 40126 ft 449 kts 178°
2026-05-04 21:10 30.96670 -71.49884 40123 ft 449 kts 178°
2026-05-04 21:11 30.90605 -71.48324 40120 ft 449 kts 178°
2026-05-04 21:11 30.84503 -71.46756 40118 ft 449 kts 177°
2026-05-04 21:12 30.78394 -71.45188 40121 ft 449 kts 177°
2026-05-04 21:12 30.72285 -71.43623 40118 ft 450 kts 177°
2026-05-04 21:13 30.66174 -71.42059 40115 ft 450 kts 177°
2026-05-04 21:13 30.60056 -71.40496 40107 ft 450 kts 177°
2026-05-04 21:14 30.53936 -71.38934 40105 ft 450 kts 177°
2026-05-04 21:14 30.47812 -71.37372 40111 ft 451 kts 177°
2026-05-04 21:15 30.41687 -71.35814 40109 ft 451 kts 177°
2026-05-04 21:15 30.35557 -71.34261 40102 ft 451 kts 177°
2026-05-04 21:16 30.29422 -71.32706 40099 ft 451 kts 177°
2026-05-04 21:16 30.23283 -71.31150 40099 ft 451 kts 177°
2026-05-04 21:17 30.17142 -71.29595 40095 ft 452 kts 177°
2026-05-04 21:17 30.11005 -71.28042 40094 ft 452 kts 177°
2026-05-04 21:18 30.04866 -71.26491 40089 ft 452 kts 177°
2026-05-04 21:18 29.98757 -71.24950 40091 ft 452 kts 177°
2026-05-04 21:19 29.92616 -71.23402 40082 ft 452 kts 177°
2026-05-04 21:19 29.86474 -71.21856 40084 ft 452 kts 177°
2026-05-04 21:20 29.80330 -71.20312 40080 ft 452 kts 177°
2026-05-04 21:20 29.74187 -71.18769 40079 ft 452 kts 177°
2026-05-04 21:21 29.68043 -71.17229 40080 ft 452 kts 177°
2026-05-04 21:21 29.61896 -71.15690 40082 ft 452 kts 177°
2026-05-04 21:22 29.55754 -71.14158 40076 ft 452 kts 177°
2026-05-04 21:22 29.49606 -71.12627 40067 ft 452 kts 177°
2026-05-04 21:23 29.43458 -71.11095 40065 ft 452 kts 177°
2026-05-04 21:23 29.37308 -71.09562 40066 ft 452 kts 177°
2026-05-04 21:24 29.31152 -71.08030 40063 ft 453 kts 177°
2026-05-04 21:24 29.24994 -71.06500 40060 ft 453 kts 177°
2026-05-04 21:25 29.18835 -71.04971 40057 ft 453 kts 177°
2026-05-04 21:25 29.12674 -71.03443 40059 ft 453 kts 177°
2026-05-04 21:26 29.06509 -71.01916 40052 ft 453 kts 177°
2026-05-04 21:26 29.00385 -71.00402 40052 ft 453 kts 177°
2026-05-04 21:27 28.94219 -70.98878 40055 ft 453 kts 177°
2026-05-04 21:27 28.88054 -70.97357 40054 ft 453 kts 177°
2026-05-04 21:28 28.81886 -70.95837 40055 ft 453 kts 177°
2026-05-04 21:28 28.75722 -70.94316 40054 ft 453 kts 177°
2026-05-04 21:29 28.69562 -70.92794 40048 ft 453 kts 177°
2026-05-04 21:29 28.63402 -70.91274 40050 ft 453 kts 177°
2026-05-04 21:30 28.57247 -70.89756 40046 ft 453 kts 177°
2026-05-04 21:30 28.51091 -70.88241 40046 ft 452 kts 177°
2026-05-04 21:31 28.41863 -70.85972 40041 ft 452 kts 177°
2026-05-04 21:32 28.35715 -70.84463 40039 ft 452 kts 177°
2026-05-04 21:32 28.29566 -70.82955 40039 ft 452 kts 177°
2026-05-04 21:33 28.23423 -70.81450 40036 ft 452 kts 177°
2026-05-04 21:33 28.17280 -70.79948 40031 ft 451 kts 177°
2026-05-04 21:34 28.11143 -70.78448 40033 ft 451 kts 177°
2026-05-04 21:34 28.05001 -70.76950 40041 ft 451 kts 177°
2026-05-04 21:35 27.98899 -70.75467 40039 ft 451 kts 177°
2026-05-04 21:35 27.92752 -70.73974 40038 ft 451 kts 177°
2026-05-04 21:36 27.86611 -70.72482 40037 ft 452 kts 177°
2026-05-04 21:36 27.80466 -70.70989 40034 ft 452 kts 177°
2026-05-04 21:37 27.74323 -70.69498 40035 ft 452 kts 177°
2026-05-04 21:37 27.68171 -70.68008 40030 ft 452 kts 177°
2026-05-04 21:38 27.62022 -70.66519 40028 ft 452 kts 177°
2026-05-04 21:38 27.55863 -70.65031 40025 ft 453 kts 176°
2026-05-04 21:39 27.49686 -70.63540 40026 ft 454 kts 177°
2026-05-04 21:39 27.44544 -70.62299 40013 ft 454 kts 176°
2026-05-04 21:40 27.38352 -70.60807 40017 ft 456 kts 176°
2026-05-04 21:40 27.32142 -70.59312 40019 ft 457 kts 176°
2026-05-04 21:41 27.25917 -70.57815 40022 ft 458 kts 176°
2026-05-04 21:41 27.19683 -70.56319 40016 ft 458 kts 176°
2026-05-04 21:42 27.13437 -70.54826 40014 ft 459 kts 176°
2026-05-04 21:42 27.07180 -70.53329 40016 ft 460 kts 176°
2026-05-04 21:43 27.00911 -70.51829 40015 ft 461 kts 176°
2026-05-04 21:43 26.94632 -70.50327 40016 ft 462 kts 176°
2026-05-04 21:44 26.88343 -70.48825 40013 ft 462 kts 176°
2026-05-04 21:44 26.82044 -70.47322 40016 ft 463 kts 176°
2026-05-04 21:45 26.75739 -70.45820 40015 ft 464 kts 176°
2026-05-04 21:45 26.69419 -70.44316 40015 ft 464 kts 176°
2026-05-04 21:46 26.63140 -70.42823 40018 ft 465 kts 176°
2026-05-04 21:46 26.56807 -70.41319 40016 ft 465 kts 176°
2026-05-04 21:47 26.50465 -70.39815 40015 ft 466 kts 176°
2026-05-04 21:47 26.44120 -70.38312 40014 ft 466 kts 176°
2026-05-04 21:48 26.37770 -70.36812 40011 ft 467 kts 176°
2026-05-04 21:48 26.31410 -70.35313 40014 ft 467 kts 176°
2026-05-04 21:49 26.25052 -70.33813 40011 ft 467 kts 176°
2026-05-04 21:49 26.18684 -70.32311 40012 ft 468 kts 177°
2026-05-04 21:50 26.12316 -70.30811 40011 ft 468 kts 177°
2026-05-04 21:50 26.05944 -70.29311 40015 ft 468 kts 177°
2026-05-04 21:51 25.99567 -70.27812 40011 ft 468 kts 177°
2026-05-04 21:51 25.93187 -70.26314 40007 ft 469 kts 177°
2026-05-04 21:52 25.86805 -70.24818 40010 ft 469 kts 177°
2026-05-04 21:52 25.80425 -70.23323 40008 ft 469 kts 177°
2026-05-04 21:53 25.74084 -70.21839 40006 ft 469 kts 177°
2026-05-04 21:53 25.67701 -70.20347 40016 ft 469 kts 177°
2026-05-04 21:54 25.61318 -70.18857 40013 ft 469 kts 177°
2026-05-04 21:54 25.54927 -70.17370 40010 ft 469 kts 177°
2026-05-04 21:55 25.48529 -70.15883 40009 ft 470 kts 177°
2026-05-04 21:55 25.42126 -70.14394 40013 ft 470 kts 177°
2026-05-04 21:56 25.35715 -70.12903 40013 ft 471 kts 177°
2026-05-04 21:56 25.29298 -70.11413 40010 ft 472 kts 177°
2026-05-04 21:57 25.22874 -70.09923 40013 ft 472 kts 177°
2026-05-04 21:57 25.16440 -70.08432 40013 ft 473 kts 177°
2026-05-04 21:58 25.10001 -70.06942 40012 ft 473 kts 177°
2026-05-04 21:58 25.03550 -70.05488 40012 ft 470 kts 180°
2026-05-04 21:59 24.97108 -70.04846 40016 ft 462 kts 187°
2026-05-04 21:59 24.90699 -70.04624 40011 ft 461 kts 187°
2026-05-04 22:00 24.84278 -70.04393 40016 ft 462 kts 187°
2026-05-04 22:00 24.77850 -70.04112 40016 ft 462 kts 186°
2026-05-04 22:01 24.71420 -70.03812 40015 ft 463 kts 186°
2026-05-04 22:01 24.64984 -70.03511 40016 ft 463 kts 186°
2026-05-04 22:02 24.58544 -70.03211 40016 ft 464 kts 186°
2026-05-04 22:02 24.52092 -70.02912 40019 ft 465 kts 186°
2026-05-04 22:03 24.45627 -70.02612 40023 ft 465 kts 186°
2026-05-04 22:03 24.39196 -70.02314 40018 ft 466 kts 186°
2026-05-04 22:04 24.32712 -70.02014 40029 ft 467 kts 186°
2026-05-04 22:04 24.26214 -70.01714 40026 ft 468 kts 186°
2026-05-04 22:05 24.19711 -70.01413 40026 ft 468 kts 186°
2026-05-04 22:05 24.13294 -70.01683 40021 ft 455 kts 197°
2026-05-04 22:06 24.07109 -70.02995 40022 ft 452 kts 200°
2026-05-04 22:06 24.00964 -70.04445 40020 ft 453 kts 200°
2026-05-04 22:07 23.94783 -70.05829 40018 ft 453 kts 199°
2026-05-04 22:07 23.88592 -70.07170 40019 ft 454 kts 199°
2026-05-04 22:08 23.82392 -70.08501 40022 ft 454 kts 199°
2026-05-04 22:08 23.76186 -70.09833 40032 ft 454 kts 199°
2026-05-04 22:09 23.69981 -70.11165 40022 ft 455 kts 199°
2026-05-04 22:09 23.63768 -70.12498 40020 ft 455 kts 199°
2026-05-04 22:10 23.57558 -70.13829 40019 ft 455 kts 199°
2026-05-04 22:10 23.51345 -70.15159 40018 ft 455 kts 199°
2026-05-04 22:11 23.45128 -70.16489 40017 ft 455 kts 199°
2026-05-04 22:11 23.38916 -70.17817 40020 ft 455 kts 199°
2026-05-04 22:12 23.32699 -70.19143 40027 ft 455 kts 199°
2026-05-04 22:12 23.26484 -70.20465 40024 ft 455 kts 199°
2026-05-04 22:13 23.20308 -70.21779 40027 ft 455 kts 199°
2026-05-04 22:13 23.14097 -70.23101 40024 ft 455 kts 199°
2026-05-04 22:14 23.07881 -70.24423 40025 ft 455 kts 199°
2026-05-04 22:14 23.01661 -70.25745 40026 ft 455 kts 199°
2026-05-04 22:15 22.95441 -70.27066 40018 ft 456 kts 199°
2026-05-04 22:15 22.89215 -70.28387 40018 ft 456 kts 198°
2026-05-04 22:16 22.82975 -70.29709 40022 ft 457 kts 198°
2026-05-04 22:16 22.76729 -70.31031 40024 ft 457 kts 198°
2026-05-04 22:17 22.70483 -70.32352 40018 ft 458 kts 198°
2026-05-04 22:17 22.64226 -70.33674 40018 ft 458 kts 198°
2026-05-04 22:18 22.57970 -70.34995 40025 ft 459 kts 198°
2026-05-04 22:18 22.51704 -70.36316 40024 ft 459 kts 198°
2026-05-04 22:19 22.45429 -70.37635 40020 ft 460 kts 198°
2026-05-04 22:19 22.39148 -70.38955 40020 ft 460 kts 198°
2026-05-04 22:20 22.32857 -70.40277 40017 ft 461 kts 198°
2026-05-04 22:20 22.26563 -70.41600 40017 ft 461 kts 198°
2026-05-04 22:21 22.20263 -70.42923 40017 ft 462 kts 198°
2026-05-04 22:21 22.13958 -70.44245 40015 ft 462 kts 198°
2026-05-04 22:22 22.07646 -70.45568 40016 ft 462 kts 198°
2026-05-04 22:22 22.01330 -70.46890 40013 ft 463 kts 198°
2026-05-04 22:23 21.95009 -70.48212 40009 ft 463 kts 198°
2026-05-04 22:23 21.88685 -70.49534 40011 ft 463 kts 198°
2026-05-04 22:24 21.82398 -70.50846 40009 ft 464 kts 197°
2026-05-04 22:24 21.76065 -70.52167 40007 ft 464 kts 197°
2026-05-04 22:24 21.72889 -70.52830 39797 ft 465 kts 197°
2026-05-04 22:25 21.69669 -70.53500 39517 ft 466 kts 197°
2026-05-04 22:25 21.66527 -70.54154 39094 ft 467 kts 197°
2026-05-04 22:25 21.63331 -70.54818 38510 ft 468 kts 197°
2026-05-04 22:25 21.60136 -70.55482 37873 ft 468 kts 197°
2026-05-04 22:26 21.56931 -70.56148 37291 ft 470 kts 196°
2026-05-04 22:26 21.53717 -70.56816 36727 ft 471 kts 196°
2026-05-04 22:26 21.51546 -70.57268 36335 ft 471 kts 195°
2026-05-04 22:26 21.48322 -70.57937 35768 ft 472 kts 195°
2026-05-04 22:27 21.45096 -70.58607 35210 ft 473 kts 195°
2026-05-04 22:27 21.41858 -70.59279 34638 ft 474 kts 194°
2026-05-04 22:27 21.38613 -70.59952 34036 ft 475 kts 194°
2026-05-04 22:27 21.35366 -70.60625 33353 ft 476 kts 194°
2026-05-04 22:28 21.32109 -70.61300 32716 ft 478 kts 194°
2026-05-04 22:28 21.28842 -70.61977 32096 ft 479 kts 194°
2026-05-04 22:28 21.25602 -70.62647 31474 ft 481 kts 193°
2026-05-04 22:28 21.22270 -70.63337 30809 ft 483 kts 193°
2026-05-04 22:29 21.19016 -70.64010 30095 ft 482 kts 193°
2026-05-04 22:29 21.15731 -70.64688 29282 ft 478 kts 193°
2026-05-04 22:29 21.12479 -70.65359 28544 ft 474 kts 193°
2026-05-04 22:29 21.09258 -70.66023 27815 ft 469 kts 193°
2026-05-04 22:30 21.06065 -70.66682 27120 ft 465 kts 193°
2026-05-04 22:30 21.02905 -70.67335 26431 ft 461 kts 193°
2026-05-04 22:30 20.99773 -70.67981 25754 ft 457 kts 192°
2026-05-04 22:30 20.96664 -70.68623 25073 ft 453 kts 192°
2026-05-04 22:31 20.93583 -70.69258 24408 ft 449 kts 192°
2026-05-04 22:31 20.90527 -70.69888 23747 ft 445 kts 192°
2026-05-04 22:31 20.87498 -70.70511 23005 ft 440 kts 192°
2026-05-04 22:31 20.84494 -70.71128 22291 ft 437 kts 192°
2026-05-04 22:32 20.81522 -70.71738 21624 ft 433 kts 192°
2026-05-04 22:32 20.78583 -70.72342 20975 ft 428 kts 192°
2026-05-04 22:32 20.75670 -70.72940 20335 ft 425 kts 192°
2026-05-04 22:32 20.72781 -70.73533 19705 ft 421 kts 192°
2026-05-04 22:33 20.69919 -70.74122 19080 ft 417 kts 192°
2026-05-04 22:33 20.67081 -70.74704 18463 ft 413 kts 193°
2026-05-04 22:33 20.64274 -70.75281 17793 ft 409 kts 193°
2026-05-04 22:33 20.61494 -70.75851 17176 ft 405 kts 193°
2026-05-04 22:34 20.58735 -70.76418 16578 ft 402 kts 192°
2026-05-04 22:34 20.56000 -70.76979 15981 ft 398 kts 192°
2026-05-04 22:34 20.53295 -70.77534 15389 ft 394 kts 192°
2026-05-04 22:34 20.50612 -70.78084 14800 ft 391 kts 192°
2026-05-04 22:35 20.47957 -70.78628 14222 ft 387 kts 192°
2026-05-04 22:35 20.45316 -70.79141 13625 ft 385 kts 189°
2026-05-04 22:35 20.42661 -70.79444 13025 ft 382 kts 185°
2026-05-04 22:35 20.40019 -70.79612 12479 ft 379 kts 184°
2026-05-04 22:36 20.37400 -70.79733 11947 ft 376 kts 184°
2026-05-04 22:36 20.34801 -70.79845 11465 ft 372 kts 184°
2026-05-04 22:36 20.32255 -70.79959 11189 ft 370 kts 184°
2026-05-04 22:36 20.29757 -70.80074 11068 ft 348 kts 184°
2026-05-04 22:37 20.27415 -70.80185 10951 ft 326 kts 184°
2026-05-04 22:37 20.25231 -70.80292 10834 ft 303 kts 184°
2026-05-04 22:37 20.23169 -70.80395 10722 ft 294 kts 184°
2026-05-04 22:37 20.21133 -70.80499 10581 ft 291 kts 184°
2026-05-04 22:38 20.19113 -70.80603 10254 ft 291 kts 184°
2026-05-04 22:38 20.17116 -70.80705 9771 ft 286 kts 184°
2026-05-04 22:38 20.15130 -70.80807 9233 ft 284 kts 184°
2026-05-04 22:38 20.13162 -70.80907 8758 ft 282 kts 184°
2026-05-04 22:39 20.11207 -70.81007 8274 ft 280 kts 184°
2026-05-04 22:39 20.09261 -70.81106 7819 ft 279 kts 184°
2026-05-04 22:39 20.07330 -70.81204 7405 ft 277 kts 184°
2026-05-04 22:39 20.05412 -70.81302 6971 ft 275 kts 184°
2026-05-04 22:40 20.03502 -70.81399 6545 ft 274 kts 184°
2026-05-04 22:40 20.01603 -70.81452 6109 ft 273 kts 178°
2026-05-04 22:40 19.99791 -70.80939 5811 ft 272 kts 155°
2026-05-04 22:40 19.98175 -70.79882 5416 ft 272 kts 146°
2026-05-04 22:41 19.96728 -70.78753 5049 ft 239 kts 144°
2026-05-04 22:41 19.95482 -70.77750 4695 ft 216 kts 144°
2026-05-04 22:41 19.94303 -70.76804 4393 ft 210 kts 144°
2026-05-04 22:41 19.93146 -70.75881 4127 ft 205 kts 144°
2026-05-04 22:42 19.92007 -70.74977 4048 ft 201 kts 144°
2026-05-04 22:42 19.90947 -70.74135 4051 ft 189 kts 144°
2026-05-04 22:42 19.89895 -70.73303 4026 ft 187 kts 145°
2026-05-04 22:42 19.88852 -70.72478 4039 ft 187 kts 144°
2026-05-04 22:43 19.87808 -70.71653 4036 ft 187 kts 144°
2026-05-04 22:43 19.86767 -70.70832 4038 ft 187 kts 144°
2026-05-04 22:43 19.85721 -70.70008 4036 ft 187 kts 144°
2026-05-04 22:43 19.84713 -70.69212 3690 ft 178 kts 144°
2026-05-04 22:44 19.83619 -70.68563 3333 ft 181 kts 159°
2026-05-04 22:44 19.82429 -70.68136 2966 ft 179 kts 160°
2026-05-04 22:44 19.81258 -70.67738 2628 ft 175 kts 161°
2026-05-04 22:44 19.80091 -70.67343 2528 ft 176 kts 161°
2026-05-04 22:45 19.78990 -70.66976 2481 ft 151 kts 161°
2026-05-04 22:45 19.77062 -70.66277 2393 ft 146 kts 152°
2026-05-04 22:45 19.76223 -70.65674 2123 ft 146 kts 139°
2026-05-04 22:46 19.75479 -70.64936 1874 ft 147 kts 134°
2026-05-04 22:46 19.74841 -70.64101 1512 ft 145 kts 119°
2026-05-04 22:46 19.74596 -70.63091 1074 ft 142 kts 94°
2026-05-04 22:46 19.74572 -70.62006 807 ft 150 kts 88°
2026-05-04 22:47 19.74687 -70.60896 567 ft 152 kts 76°
2026-05-04 22:47 19.74987 -70.59816 349 ft 153 kts 73°
2026-05-04 22:47 19.75302 -70.58735 151 ft 154 kts 73°
2026-05-04 22:47 19.75603 -70.57683 31 ft 142 kts 73°
2026-05-04 22:48 19.75842 -70.56827 33 ft 99 kts 74°
2026-05-04 22:48 19.75980 -70.56331 36 ft 46 kts 73°
2026-05-04 22:48 19.76065 -70.56037 32 ft 40 kts 72°
2026-05-04 22:48 19.76133 -70.55803 36 ft 25 kts 73°
2026-05-04 22:49 19.76170 -70.55687 35 ft 10 kts 62°
2026-05-04 22:49 19.76196 -70.55632 37 ft 3 kts 78°
2026-05-04 22:49 19.76193 -70.55627 37 ft 1 kts 109°
2026-05-04 22:49 19.76188 -70.55625 36 ft 1 kts 140°
2026-05-04 22:50 19.76181 -70.55626 36 ft 1 kts 177°
2026-05-04 22:50 19.76176 -70.55631 36 ft 2 kts 216°
2026-05-04 22:50 19.76166 -70.55662 36 ft 8 kts 257°
2026-05-04 22:50 19.76151 -70.55736 33 ft 10 kts 256°
2026-05-04 22:51 19.76133 -70.55805 36 ft 9 kts 253°
2026-05-04 22:51 19.76114 -70.55869 35 ft 9 kts 253°
2026-05-04 22:51 19.76096 -70.55934 33 ft 10 kts 253°
2026-05-04 22:51 19.76075 -70.56006 33 ft 11 kts 253°
2026-05-04 22:52 19.76053 -70.56084 32 ft 11 kts 253°
2026-05-04 22:52 19.76032 -70.56155 33 ft 9 kts 252°
2026-05-04 22:52 19.76016 -70.56212 35 ft 7 kts 252°
2026-05-04 22:52 19.76004 -70.56254 35 ft 5 kts 252°
2026-05-04 22:53 19.75995 -70.56283 36 ft 4 kts 252°
2026-05-04 22:53 19.75985 -70.56319 36 ft 8 kts 253°
2026-05-04 22:53 19.75963 -70.56392 36 ft 11 kts 251°
2026-05-04 22:53 19.75919 -70.56433 36 ft 6 kts 197°
2026-05-04 22:54 19.75882 -70.56430 36 ft 5 kts 169°
2026-05-04 22:54 19.75855 -70.56422 36 ft 4 kts 164°
2026-05-04 22:54 19.75831 -70.56415 37 ft 4 kts 164°
2026-05-04 22:54 19.75790 -70.56402 37 ft 7 kts 162°
2026-05-04 22:55 19.75753 -70.56392 38 ft 0 kts 169°
2026-05-04 22:55 19.75742 -70.56390 38 ft 3 kts 169°
2026-05-04 22:56 19.75720 -70.56389 37 ft 3 kts 180°
2026-05-04 22:56 19.75699 -70.56392 40 ft 3 kts 190°
2026-05-04 22:56 19.75679 -70.56399 41 ft 3 kts 201°
2026-05-04 22:56 19.75659 -70.56409 43 ft 3 kts 206°
2026-05-04 22:57 19.75641 -70.56419 45 ft 2 kts 208°
2026-05-04 22:57 19.75629 -70.56426 46 ft 1 kts 210°
2026-05-04 22:57 19.75622 -70.56430 47 ft 1 kts 210°
2026-05-04 22:57 19.75618 -70.56433 47 ft 0 kts 210°